Weather Roundup
Issued by NWS

Home | Current Version | Previous Version | Text Only | Print | Product List | Glossary On
Versions: 1 2 3 4 5 6 7 8 9 10 11 12 13 14 15 16 17 18 19 20 21 22 23 24 25 26 27 28 29 30 31 32 33 34 35 36 37 38 39 40 41 42 43 44 45 46 47 48 49 50
978
NZUS93 KARX 092110
HRRWXR

CURRENT HOURLY OBSERVATIONS ACROSS
MUCH OF THE UPPER MISSISSIPPI VALLEY
NATIONAL WEATHER SERVICE LA CROSSE WI
300 PM CST TUE FEB 09 2016


...SOUTHEAST MINNESOTA...


CITY           SKY/WX    TMP DP  RH WIND       PRES   REMARKS
ROCHESTER      SUNNY     13   1  59 NW22      30.00R WCI  -6
ROCHESTER/MAYO FAIR      14   0  54 NW21G35   30.01R WCI  -4
WINONA         SUNNY     18   3  53 NW20G25   30.03R WCI   1
AUSTIN         SUNNY     12   3  67 NW20G32   30.03R WCI  -6
ALBERT LEA     SUNNY     14   3  62 NW13G22   30.05S WCI   0
DODGE CENTER   SUNNY     14   1  57 NW17      30.01R WCI  -3
PRESTON        SUNNY     12   1  62 NW17      29.99S WCI  -5
OWATONNA       SUNNY     14   3  62 NW21      30.06R WCI  -4
FARIBAULT      SUNNY     16   1  53 NW21G26   30.07S WCI  -2
$$

...ELSEWHERE IN MINNESOTA...


CITY           SKY/WX    TMP DP  RH WIND       PRES   REMARKS
MINNEAPOLIS    SUNNY     16  -1  47 NW21G28   30.10R WCI  -1
INTNL FALLS    SUNNY      6  -6  57 N18       30.14R WCI -13
DULUTH         SUNNY      9  -5  53 N21G26    29.99S WCI -11
RED WING       SUNNY     18  -2  41 NW14G22   30.05R WCI   4
REDWOOD FALLS  MOSUNNY   18   6  59 NW16G25   30.17R WCI   3
MANKATO        SUNNY    N/A N/A N/A NW24      30.10S
WORTHINGTON    CLOUDY    16   5  62 NW20G26   30.16R WCI  -1
FAIRMONT       MOSUNNY   18   5  57 NW21G31   30.11R WCI   1
$$

...SOUTHWEST WISCONSIN...


CITY           SKY/WX    TMP DP  RH WIND       PRES   REMARKS
LA CROSSE      SUNNY     15  -1  49 NW16      30.00S WCI  -1
PRAIRIE DU CHI SUNNY     15  -1  48 NW13G18   29.99S WCI   2
BOSCOBEL       SUNNY     18   2  49 N13       29.97S WCI   5
LONE ROCK      PTSUNNY   14   1  56 NW15G21   29.95R WCI  -1
PLATTEVILLE    MOSUNNY   15   6  65 NW13      29.92S WCI   1
FORT MC COY    SUNNY     14   1  57 NW13G20   29.98R WCI   0
CAMP DOUGLAS   PTSUNNY   14   3  62 NW16      29.92R WCI  -2
VIROQUA        FAIR      13   1  59 NW17      29.92S WCI  -4
WIS DELLS      CLOUDY    15   3  59 NW13G26   29.89S WCI   1
$$

...ELSEWHERE IN WISCONSIN...


CITY           SKY/WX    TMP DP  RH WIND       PRES   REMARKS
MILWAUKEE      CLOUDY    18   6  59 NW15      29.84R WCI   4
MADISON        LGT SNOW  15   6  67 NW15G22   29.88S WCI   0
GREEN BAY      CLOUDY    19   7  59 N14       29.83R WCI   6
EAU CLAIRE     SUNNY     13  -1  54 N8        30.01R WCI   2
BLACK RVR FLS  FAIR      14  -4  43 NW13      29.97S WCI   0
MEDFORD        PTSUNNY   11   1  63 N15G22    29.88R WCI  -5
WAUSAU         CLOUDY    16   5  62 NW14G23   29.84R WCI   2
WIS RAPIDS     CLOUDY    14   3  61 N21G32    29.90R WCI  -4
MARSHFIELD     CLOUDY    13   3  64 NW17      29.88R WCI  -4
RICE LAKE      SUNNY     14  -2  49 NW10G18   30.02R WCI   1
$$

...NORTHEAST IOWA...


CITY           SKY/WX    TMP DP  RH WIND       PRES   REMARKS
WATERLOO       SUNNY     14   4  64 NW16      30.04S WCI  -2
DUBUQUE        SUNNY     13   4  67 NW17      29.93S WCI  -4
DECORAH        SUNNY     14   0  52 NW15G24   29.97R WCI  -1
MASON CITY     SUNNY     14   5  67 NW24      30.07S WCI  -5
CHARLES CITY   MOSUNNY   12   3  67 NW24      30.04R WCI  -8
OELWEIN        SUNNY     12   3  67 NW24G32   30.01R HAZE    WCI  -8
$$

...ELSEWHERE IN IOWA...


CITY           SKY/WX    TMP DP  RH WIND       PRES   REMARKS
DES MOINES     MOSUNNY   18   4  54 NW21G29   30.13R WCI   1
IOWA CITY      MOSUNNY   15   4  61 NW23G32   30.05S WCI  -3
FORT DODGE     SUNNY     16   5  62 NW9G18    30.13S WCI   4
MARSHALLTOWN   SUNNY     14   5  67 NW22      30.07F WCI  -4
CEDAR RAPIDS   MOSUNNY   14   5  67 NW22      30.01S WCI  -4
$$

...NORTHERN ILLINOIS...


CITY           SKY/WX    TMP DP  RH WIND       PRES   REMARKS
CHICAGO-OHARE  FLURRIES  17   7  64 NW17      29.85R WCI   1
CHICAGO-MIDWAY FLURRIES  19   6  57 NW13      29.86R WCI   6
MOLINE         PTSUNNY   18   6  59 W23G30    29.98S WCI   0
ROCKFORD       FLURRIES  18   6  59 NW15G24   29.91R WCI   4
PEORIA         FLURRIES  19   7  59 NW17G23   29.96R WCI   4
$$

NOTE: "FAIR" INDICATES FEW OR NO CLOUDS BELOW 12,000 FEET WITH NO
SIGNIFICANT WEATHER AND/OR OBSTRUCTIONS TO VISIBILITY. WIND
SPEEDS ARE IN MILES-PER-HOUR.




USA.gov is the U.S. government's official web portal to all federal, state and local government web resources and services.